Weather History for Yankton, SD

Change the Weather History Date:

Wednesday, March 12, 2014

  Actual Average Record
Temperature  
Mean Temperature 40 °F -  
Max Temperature 53 °F 44 °F 75 °F (2007)
Min Temperature 28 °F 22 °F -16 °F (1948)
Degree Days  
Heating Degree Days 24    
Moisture  
Dew Point 27 °F    
Average Humidity 68    
Maximum Humidity 100    
Minimum Humidity 33    
Precipitation  
Precipitation 0.00 in - - ()
Sea Level Pressure  
Sea Level Pressure 30.10 in    
Wind  
Wind Speed 10 mph (WNW)    
Max Wind Speed 21 mph    
Max Gust Speed 26 mph    
Visibility 10 miles    
Events      
Averages and records for this station are not official NWS values.
T = Trace of Precipitation, MM = Missing Value Source: NWS Daily Summary

Daily Weather History Graph

Daily Weather History Graph

Search for Another Location

Airport:

Trip Planner

Search our weather history database for the weather conditions in past years. The results will help you decide how hot, cold, wet, or windy it might be!

Date:

Astronomy

Mar. 12, 2014 Rise Set
Actual Time 7:46 AM CDT 7:32 PM CDT
Civil Twilight 7:18 AM CDT 8:00 PM CDT
Nautical Twilight 6:45 AM CDT 8:33 PM CDT
Astronomical Twilight 6:12 AM CDT 9:06 PM CDT
Moon 4:00 PM CDT (3/12) 5:23 AM CDT (3/12)
Length of Visible Light 12h 42m
Length of Day
11h 45m
Waxing Gibbous, 85% of the Moon is Illuminated
Mar 12
Waxing Gibbous
Mar 16
Full
Mar 23
Last Quarter
Mar 30
New
Apr 7
First Quarter

Hourly Weather History & Observations

Time (CDT) Temp. Windchill Dew Point Humidity Pressure Visibility Wind Dir Wind Speed Gust Speed Precip Events Conditions
12:15 AM 28.4 °F 21.2 °F 24.8 °F 86% 30.15 in 10.0 mi WNW 6.9 mph - N/A   Clear
12:35 AM 28.4 °F 19.7 °F 24.8 °F 86% 30.15 in 10.0 mi WNW 9.2 mph - N/A   Clear
12:55 AM 28.4 °F 19.7 °F 24.8 °F 86% 30.15 in 10.0 mi NW 9.2 mph - N/A   Clear
1:15 AM 28.4 °F 19.7 °F 24.8 °F 86% 30.15 in 10.0 mi WNW 9.2 mph - N/A   Clear
1:35 AM 28.4 °F 18.5 °F 26.6 °F 93% 30.15 in 10.0 mi NW 11.5 mph - N/A   Clear
1:55 AM 28.4 °F 18.5 °F 26.6 °F 93% 30.15 in 10.0 mi NW 11.5 mph - N/A   Clear
2:15 AM 28.4 °F 19.1 °F 26.6 °F 93% 30.15 in 10.0 mi WNW 10.4 mph - N/A   Clear
2:35 AM 28.4 °F 19.1 °F 26.6 °F 93% 30.15 in 10.0 mi WNW 10.4 mph - N/A   Clear
2:55 AM 28.4 °F 19.1 °F 26.6 °F 93% 30.15 in 10.0 mi WNW 10.4 mph - N/A   Partly Cloudy
3:15 AM 28.4 °F 19.7 °F 26.6 °F 93% 30.15 in 10.0 mi WNW 9.2 mph - N/A   Scattered Clouds
3:35 AM 30.2 °F 21.9 °F 26.6 °F 86% 30.14 in 10.0 mi WNW 9.2 mph - N/A   Mostly Cloudy
3:55 AM 30.2 °F 22.6 °F 26.6 °F 86% 30.14 in 10.0 mi WNW 8.1 mph - N/A   Overcast
4:15 AM 30.2 °F 23.4 °F 28.4 °F 93% 30.14 in 10.0 mi WNW 6.9 mph - N/A   Overcast
4:35 AM 30.2 °F 21.9 °F 28.4 °F 93% 30.14 in 10.0 mi WNW 9.2 mph - N/A   Overcast
4:55 AM 30.2 °F 23.4 °F 28.4 °F 93% 30.14 in 10.0 mi WNW 6.9 mph - N/A   Mostly Cloudy
5:15 AM 30.2 °F 23.4 °F 26.6 °F 86% 30.14 in 10.0 mi West 6.9 mph - N/A   Mostly Cloudy
5:35 AM 30.2 °F 22.6 °F 26.6 °F 86% 30.13 in 10.0 mi West 8.1 mph - N/A   Mostly Cloudy
5:55 AM 30.2 °F 23.4 °F 26.6 °F 86% 30.14 in 10.0 mi West 6.9 mph - N/A   Scattered Clouds
6:15 AM 30.2 °F 23.4 °F 26.6 °F 86% 30.14 in 10.0 mi West 6.9 mph - N/A   Mostly Cloudy
6:35 AM 30.2 °F 23.4 °F 26.6 °F 86% 30.14 in 10.0 mi West 6.9 mph - N/A   Mostly Cloudy
6:55 AM 30.2 °F 23.4 °F 28.4 °F 93% 30.14 in 10.0 mi WSW 6.9 mph - N/A   Partly Cloudy
7:15 AM 30.2 °F 23.4 °F 26.6 °F 86% 30.14 in 10.0 mi West 6.9 mph - N/A   Partly Cloudy
7:35 AM 30.2 °F 23.4 °F 26.6 °F 86% 30.14 in 10.0 mi West 6.9 mph - N/A   Mostly Cloudy
7:55 AM 30.2 °F 26.7 °F 26.6 °F 86% 30.14 in 10.0 mi WSW 3.5 mph - N/A   Mostly Cloudy
8:15 AM 28.4 °F 23.3 °F 26.6 °F 93% 30.14 in 10.0 mi WSW 4.6 mph - N/A   Partly Cloudy
8:35 AM 28.4 °F 23.3 °F 28.4 °F 100% 30.14 in 10.0 mi SSW 4.6 mph - N/A   Clear
8:55 AM 30.2 °F 22.6 °F 28.4 °F 93% 30.13 in 10.0 mi SW 8.1 mph - N/A   Clear
9:15 AM 32.0 °F 24.8 °F 28.4 °F 87% 30.13 in 10.0 mi WSW 8.1 mph - N/A   Clear
9:35 AM 33.8 °F 26.4 °F 30.2 °F 87% 30.13 in 10.0 mi West 9.2 mph - N/A   Clear
9:55 AM 35.6 °F 27.1 °F 30.2 °F 81% 30.13 in 10.0 mi West 12.7 mph - N/A   Clear
10:15 AM 35.6 °F 26.6 °F 28.4 °F 75% 30.13 in 10.0 mi WNW 13.8 mph - N/A   Clear
10:35 AM 37.4 °F 28.9 °F 28.4 °F 70% 30.14 in 10.0 mi WNW 13.8 mph 18.4 mph N/A   Clear
10:55 AM 37.4 °F 28.2 °F 30.2 °F 75% 30.13 in 10.0 mi WNW 16.1 mph 19.6 mph N/A   Clear
11:15 AM 39.2 °F 30.8 °F 28.4 °F 65% 30.14 in 10.0 mi WNW 15.0 mph 20.7 mph N/A   Clear
11:35 AM 39.2 °F 31.6 °F 28.4 °F 65% 30.14 in 10.0 mi NW 12.7 mph 19.6 mph N/A   Clear
11:55 AM 41.0 °F 34.7 °F 28.4 °F 61% 30.13 in 10.0 mi NW 10.4 mph 18.4 mph N/A   Clear
12:15 PM 42.8 °F 35.4 °F 30.2 °F 61% 30.13 in 10.0 mi WNW 15.0 mph 19.6 mph N/A   Clear
12:35 PM 44.6 °F 38.1 °F 28.4 °F 53% 30.12 in 10.0 mi WNW 13.8 mph 21.9 mph N/A   Clear
12:55 PM 44.6 °F 37.2 °F 28.4 °F 53% 30.12 in 10.0 mi WNW 17.3 mph 21.9 mph N/A   Clear
1:15 PM 46.4 °F 39.5 °F 28.4 °F 50% 30.12 in 10.0 mi WNW 17.3 mph 21.9 mph N/A   Clear
1:35 PM 46.4 °F 39.0 °F 26.6 °F 46% 30.11 in 10.0 mi NW 19.6 mph 23.0 mph N/A   Partly Cloudy
1:55 PM 46.4 °F 39.8 °F 26.6 °F 46% 30.10 in 10.0 mi NW 16.1 mph 26.5 mph N/A   Clear
2:15 PM 48.2 °F - 26.6 °F 43% 30.09 in 10.0 mi NW 18.4 mph 24.2 mph N/A   Clear
2:35 PM 50.0 °F - 24.8 °F 37% 30.09 in 10.0 mi NNW 15.0 mph 24.2 mph N/A   Clear
2:55 PM 50.0 °F - 24.8 °F 37% 30.08 in 10.0 mi WNW 13.8 mph 26.5 mph N/A   Clear
3:15 PM 50.0 °F - 24.8 °F 37% 30.07 in 10.0 mi NW 16.1 mph 20.7 mph N/A   Clear
3:35 PM 51.8 °F - 24.8 °F 35% 30.06 in 10.0 mi NW 19.6 mph 24.2 mph N/A   Partly Cloudy
3:55 PM 53.6 °F - 24.8 °F 33% 30.05 in 10.0 mi WNW 20.7 mph 26.5 mph N/A   Scattered Clouds
4:15 PM 51.8 °F - 24.8 °F 35% 30.05 in 10.0 mi WNW 13.8 mph 24.2 mph N/A   Partly Cloudy
4:35 PM 51.8 °F - 24.8 °F 35% 30.05 in 10.0 mi WNW 13.8 mph - N/A   Partly Cloudy
4:55 PM 51.8 °F - 24.8 °F 35% 30.04 in 10.0 mi West 17.3 mph - N/A   Scattered Clouds
5:15 PM 51.8 °F - 24.8 °F 35% 30.04 in 10.0 mi WNW 18.4 mph 23.0 mph N/A   Partly Cloudy
5:35 PM 53.6 °F - 24.8 °F 33% 30.03 in 10.0 mi WNW 12.7 mph - N/A   Clear
5:55 PM 53.6 °F - 24.8 °F 33% 30.02 in 10.0 mi WNW 16.1 mph 21.9 mph N/A   Clear
6:15 PM 53.6 °F - 26.6 °F 35% 30.02 in 10.0 mi WNW 15.0 mph 18.4 mph N/A   Clear
6:35 PM 51.8 °F - 26.6 °F 38% 30.01 in 10.0 mi WNW 12.7 mph - N/A   Partly Cloudy
6:55 PM 51.8 °F - 26.6 °F 38% 30.01 in 10.0 mi WNW 9.2 mph - N/A   Clear
7:15 PM 48.2 °F - 26.6 °F 43% 30.01 in 10.0 mi WNW 6.9 mph - N/A   Clear
7:35 PM 46.4 °F 43.5 °F 28.4 °F 50% 30.01 in 10.0 mi West 5.8 mph - N/A   Clear
7:55 PM 46.4 °F 42.9 °F 28.4 °F 50% 30.02 in 10.0 mi WNW 6.9 mph - N/A   Clear
8:15 PM 46.4 °F 42.9 °F 26.6 °F 46% 30.02 in 10.0 mi WNW 6.9 mph - N/A   Clear
8:35 PM 44.6 °F 41.4 °F 26.6 °F 49% 30.02 in 10.0 mi West 5.8 mph - N/A   Clear
8:55 PM 37.4 °F 34.9 °F 24.8 °F 60% 30.02 in 10.0 mi NW 3.5 mph - N/A   Clear
9:15 PM 37.4 °F 32.1 °F 28.4 °F 70% 30.03 in 10.0 mi ENE 6.9 mph - N/A   Clear
9:35 PM 35.6 °F 31.7 °F 28.4 °F 75% 30.03 in 10.0 mi East 4.6 mph - N/A   Clear
9:55 PM 35.6 °F - 28.4 °F 75% 30.04 in 10.0 mi Calm Calm - N/A   Clear
10:15 PM 35.6 °F - 30.2 °F 81% 30.04 in 10.0 mi Calm Calm - N/A   Clear
10:35 PM 35.6 °F - 30.2 °F 81% 30.04 in 10.0 mi Calm Calm - N/A   Clear
10:55 PM 35.6 °F - 28.4 °F 75% 30.03 in 10.0 mi Calm Calm - N/A   Clear
11:15 PM 33.8 °F 30.8 °F 28.4 °F 81% 30.03 in 10.0 mi SW 3.5 mph - N/A   Clear
11:35 PM 33.8 °F 27.7 °F 26.6 °F 75% 30.03 in 10.0 mi WSW 6.9 mph - N/A   Clear
11:55 PM 35.6 °F 29.9 °F 28.4 °F 75% 30.02 in 10.0 mi SW 6.9 mph - N/A   Clear